Location: Ch�teau-Arnoux
(44.0814°N, 6.0027°E)
Time: 22:00:27
(UTC+00:00)

Gbstr 26 Del rocket - Pass Details

Date: 15 November 2019
Orbit: 493 x 1264 km, 51.8° (Epoch: 13 December)

Event Time Altitude Azimuth Distance (km) Brightness Sun altitude
Exits shadow 04:17:13 63° 124° (SE) 571 3.0 -23.9°
Drops below altitude 10° 04:20:42 10° 63° (ENE) 1,690 6.1 -23.3°
Sets 04:22:51 0° 60° (ENE) 2,578 7.1 -22.9°
